2023/10/02 00:00:00,---,12.8
2023/10/02 00:10:00,---,13.0
2023/10/02 00:20:00, 1.6,12.8
2023/10/02 00:30:00, 0.0,12.7
2023/10/02 00:40:00, 0.0,12.7
2023/10/02 00:50:00, 1.7,13.1
2023/10/02 01:00:00, 1.7,13.1
2023/10/02 01:10:00, 0.0,14.1
2023/10/02 01:20:00, 0.0,13.8
2023/10/02 01:30:00, 0.0,13.4
2023/10/02 01:40:00, 0.0,13.1
2023/10/02 01:50:00, 0.0,12.7
2023/10/02 02:00:00, 0.0,12.9
2023/10/02 02:10:00, 1.6,13.2
2023/10/02 02:20:00, 1.4,12.9
2023/10/02 02:30:00, 1.3,12.8
2023/10/02 02:40:00, 1.2,12.6
2023/10/02 02:50:00, 1.2,12.2
2023/10/02 03:00:00, 1.4,12.1
2023/10/02 03:10:00, 1.6,12.2
2023/10/02 03:20:00, 1.3,12.3
2023/10/02 03:30:00, 1.2,11.9
2023/10/02 03:40:00, 1.5,11.8
2023/10/02 03:50:00, 1.5,11.6
2023/10/02 04:00:00, 1.3,11.9
2023/10/02 04:10:00, 1.3,11.9
2023/10/02 04:20:00, 1.4,12.0
2023/10/02 04:30:00, 1.4,12.0
2023/10/02 04:40:00, 1.4,11.7
2023/10/02 04:50:00, 1.5,12.2
2023/10/02 05:00:00, 1.6,11.5
2023/10/02 05:10:00, 1.7,11.3
2023/10/02 05:20:00, 1.7,11.1
2023/10/02 05:30:00,---,10.8
2023/10/02 05:40:00, 0.0,10.9
2023/10/02 05:50:00, 0.0,10.8
2023/10/02 06:00:00, 1.8,10.7
2023/10/02 06:10:00,---,10.3
2023/10/02 06:20:00, 0.0,10.7
2023/10/02 06:30:00, 1.7,10.6
2023/10/02 06:40:00, 1.6,11.1
2023/10/02 06:50:00, 1.5,11.3
2023/10/02 07:00:00, 1.3,11.7
2023/10/02 07:10:00, 1.2,12.1
2023/10/02 07:20:00, 1.2,12.1
2023/10/02 07:30:00, 1.1,12.4
2023/10/02 07:40:00, 1.1,12.7
2023/10/02 07:50:00, 0.8,14.4
2023/10/02 08:00:00, 0.6,15.1
2023/10/02 08:10:00, 0.5,16.5
2023/10/02 08:20:00, 0.6,16.8
2023/10/02 08:30:00, 0.3,17.5
2023/10/02 08:40:00, 0.1,17.6
2023/10/02 08:50:00, 0.0,18.1
2023/10/02 09:00:00, 0.0,18.6
2023/10/02 09:10:00, 0.0,18.9
2023/10/02 09:20:00, 0.0,19.1
2023/10/02 09:30:00, 0.0,19.5
2023/10/02 09:40:00, 0.0,19.5
2023/10/02 09:50:00, 0.0,19.3
2023/10/02 10:00:00, 0.0,19.3
2023/10/02 10:10:00, 0.0,19.8
2023/10/02 10:20:00, 0.0,20.5
2023/10/02 10:30:00, 0.0,20.5
2023/10/02 10:40:00, 0.0,19.8
2023/10/02 10:50:00, 0.0,20.6
2023/10/02 11:00:00, 0.0,20.5
2023/10/02 11:10:00, 0.0,20.7
2023/10/02 11:20:00, 0.3,21.0
2023/10/02 11:30:00, 0.0,21.3
2023/10/02 11:40:00, 0.0,20.9
2023/10/02 11:50:00, 0.0,21.5
2023/10/02 12:00:00, 0.0,22.2
2023/10/02 12:10:00, 0.0,21.4
2023/10/02 12:20:00, 0.0,21.2
2023/10/02 12:30:00, 0.0,22.1
2023/10/02 12:40:00, 0.0,21.2
2023/10/02 12:50:00, 0.0,21.2
2023/10/02 13:00:00, 0.0,21.7
2023/10/02 13:10:00, 0.0,22.0
2023/10/02 13:20:00, 0.0,22.2
2023/10/02 13:30:00, 0.0,23.1
2023/10/02 13:40:00, 0.0,22.6
2023/10/02 13:50:00, 0.0,21.5
2023/10/02 14:00:00, 0.0,22.3
2023/10/02 14:10:00, 0.0,23.3
2023/10/02 14:20:00, 0.0,24.7
2023/10/02 14:30:00, 0.0,26.9
2023/10/02 14:40:00, 0.0,26.1
2023/10/02 14:50:00, 0.0,26.1
2023/10/02 15:00:00, 0.0,28.3
2023/10/02 15:10:00, 0.0,28.4
2023/10/02 15:20:00, 0.0,28.2
2023/10/02 15:30:00, 0.0,27.2
2023/10/02 15:40:00, 0.0,27.1
2023/10/02 15:50:00, 0.1,26.2
2023/10/02 16:00:00, 0.4,23.2
2023/10/02 16:10:00, 0.4,23.0
2023/10/02 16:20:00, 0.4,25.3
2023/10/02 16:30:00, 0.5,25.4
2023/10/02 16:40:00, 0.4,25.9
2023/10/02 16:50:00, 0.5,20.7
2023/10/02 17:00:00, 0.6,19.5
2023/10/02 17:10:00, 0.6,19.5
2023/10/02 17:20:00, 0.8,18.3
2023/10/02 17:30:00, 0.9,15.4
2023/10/02 17:40:00, 1.0,14.4
2023/10/02 17:50:00, 1.1,13.8
2023/10/02 18:00:00, 1.0,13.2
2023/10/02 18:10:00, 0.9,13.0
2023/10/02 18:20:00, 1.0,12.6
2023/10/02 18:30:00, 1.0,12.4
2023/10/02 18:40:00, 0.9,12.1
2023/10/02 18:50:00, 0.8,11.9
2023/10/02 19:00:00, 0.8,11.9
2023/10/02 19:10:00, 0.8,11.8
2023/10/02 19:20:00, 0.8,11.5
2023/10/02 19:30:00, 0.9,11.7
2023/10/02 19:40:00, 1.0,11.6
2023/10/02 19:50:00, 1.0,11.4
2023/10/02 20:00:00, 0.9,11.6
2023/10/02 20:10:00, 0.8,11.3
2023/10/02 20:20:00, 0.7,11.5
2023/10/02 20:30:00, 0.7,11.7
2023/10/02 20:40:00, 0.6,11.7
2023/10/02 20:50:00, 0.6,11.7
2023/10/02 21:00:00, 0.6,11.8
2023/10/02 21:10:00, 0.6,11.6
2023/10/02 21:20:00, 0.6,11.9
2023/10/02 21:30:00, 0.7,11.1
2023/10/02 21:40:00, 0.7,11.3
2023/10/02 21:50:00, 0.7,11.0
2023/10/02 22:00:00, 0.7,11.1
2023/10/02 22:10:00, 0.8,11.3
2023/10/02 22:20:00, 0.7,11.1
2023/10/02 22:30:00, 0.7,10.9
2023/10/02 22:40:00, 0.7,10.8
2023/10/02 22:50:00, 0.7,10.5
2023/10/02 23:00:00, 0.8,10.7
2023/10/02 23:10:00, 0.8,10.6
2023/10/02 23:20:00, 0.7,10.8
2023/10/02 23:30:00, 0.6,10.7
2023/10/02 23:40:00, 0.6,10.8
2023/10/02 23:50:00, 0.6,10.5
